Showing default

YUNHAI 2-1E, 43913

Orbit data source: Space-Track

YUNHAI 2-1E, 43913 is a payload satellite owned by CASC (CN) in LEO that was launched on Sat, 29 Dec 2018 UTC via a CHANG ZHENG 2D/YZ-3 launch vehicle from the Jiuquan Satellite Launch Center, China (JSC). Payload-class satellites include a variety of spacecraft equipped with specific instruments for various scientific and technological missions. These include communications satellites like Starlink; space stations such as the ISS; scientific satellites like the Hubble; Earth observation satellites from companies like Planet Labs, Umbra, and HawkEye 360; GPS; miniature CubeSats for education and research; and military/defense satellites.

Loading next visibility...
Identifier
43913, 2018-112E
Orbit
LEO
Country
Flag of CNCN / PRC
Related business
Manufacturer
DFH Shenzhen
Mission
Operational Defense Meteo Radio Occ.
Bus & Motor
YH-2, Unknown motor
Mass
~100 kg wet, ~100 kg dry
Launch date (UTC)
2018-12-29 (7 years ago)
Launch vehicle
CHANG ZHENG 2D/YZ-3
Launch site
Jiuquan Satellite Launch Center, China (JSC)
Object type
Payload
Rocket body
Debris
Shape & HBR
Box + 2 Pan, 0.5 m
Radar Cross Section
0.166 m², Large (>1 m²)

Expand to show TLE details & history
Last TLE update: 5 hours ago

TLE from 5 hours ago
0 YUNHAI 2-1E
1 43913U 18112E   25310.27347064  .00000598  00000-0  29868-3 0  9995
2 43913  50.0096  32.9429 0005120 300.1958  59.8450 14.28878163357289
Epoch: 2025-11-06T06:33Z
TLE epoch observation values (Epoch: 2025-11-06T06:33:47.863Z)
Latitude
Longitude
-111.24068°
Altitude
794.171 km
Speed
7.459 km/s
True Right ascension
02h 11m 46s
True Declination
0° 00' 00"
Sunlit
Object was in full shadow at epoch
Visualization orbit readout
Latitude
Unknown
Longitude
Unknown
Altitude
Unknown
Speed
Unknown
Apparent Right ascension
Unknown
Apparent Declination
Unknown
Sunlit
N/A
Visualization observer readout
Local Sidereal Time
07:41:07
Azimuth
Unknown
Elevation
Unknown
Doppler factor
Unknown
Orbital elements
Apogee altitude
799.895 km
Perigee altitude
792.548 km
Semi-major axis
7,174.358 km
Eccentricity
0.00051
Inclination
50.0096°
RAAN
32.9429°
Arg. of periapsis
300.1958°
True anomaly
59.89575°
Mean anomaly
59.845°
Eccentric anomaly
59.87037°
Mean motion
3.57165 °/min
Orbital period
100.79 mins
BSTAR
0.00029868
Loading maneuver chart data...
Computing Atmospheric mass density...
Loading historical data...
Loading historical data...
Loading historical data...
Loading historical data...
Loading historical data...
Loading historical data...
Loading historical data...

Documentation

Showing up to 5 results
|